Content
SEND FEEDBACK

Daily
Averages
Monthly
Summary
United States of America

GREENFIELD, MASSACHUSETTS


Home > North America > United States > Massachusetts
Elevation: 190 feet     Latitude: 42 37N     Longitude: 072 33W

WEATHER
 
SELECT A DAY
Number of Records: 212,327;   Date Range: 7/1/96 - 7/20/14
 
SHARE

PRINT THIS DATA

[ ← Previous Day ]
WEATHER ALMANAC - FEBRUARY 26, 2014
[ Next Day → ]
[ °C ]   °F
Weather ElementAverageHighLow
Temperature13 °F25 °F (1:52 pm)1 °F (11:52 pm)
Dewpoint-2.4 °F7 °F (8:52 am)-11.9 °F (4:52 pm)
Humidity54.5 %87 % (6:52 am)25 % (4:52 pm)
Barometer29.85 in29.93 in (1:52 am)29.76 in (2:04 pm)
Wind Speed8.3 mph19.6 mph (11:52 am)
Wind Gust29.9 mph (11:52 am)
Weather ElementAverage
Visibility10 mi
Wind DirectionSSW (197.9 °)

Weather ElementTotal
Precipitation---
Heating Degree Days52 (Base 65)
Averaged from 24 records on February 26, 2014
WEATHER CONDITIONS BREAKOUT
WIND DIRECTION BREAKOUT
WEATHER BY HOUR - FEBRUARY 26, 2014
[ °C ]   °F
Local TimeTemperatureDewpointHumidityBarometerVisibilityWind DirectionWind SpeedGust SpeedPrecipitationEventsConditions
1:52 AM6.1 °F1.0 °F80 %29.93 in10.0 miSSW (200°)6.9 mphClear
2:52 AM6.1 °F1.9 °F83 %29.93 in10.0 miCalmClear
3:52 AM3.9 °F-0.9 °F80 %29.91 in10.0 miCalmScattered Clouds
4:52 AM3.0 °F-0.9 °F84 %29.90 in10.0 miCalmScattered Clouds
5:52 AM3.9 °F0.0 °F84 %29.88 in10.0 miCalmOvercast
6:52 AM5.0 °F1.9 °F87 %29.86 in10.0 miCalmOvercast
7:52 AM8.1 °F3.9 °F83 %29.87 in10.0 miNW (310°)3.5 mphPartly Cloudy
8:52 AM12.9 °F7.0 °F77 %29.86 in10.0 miCalmClear
9:52 AM19.0 °F5.0 °F54 %29.84 in10.0 miWest (260°)6.9 mphMostly Cloudy
10:52 AM23.0 °F5.0 °F46 %29.83 in10.0 miWest (280°)15.0 mph24.2 mphClear
11:52 AM24.1 °F1.0 °F37 %29.81 in10.0 miWest (270°)19.6 mph29.9 mphOvercast
12:52 PM24.1 °F0.0 °F35 %29.79 in10.0 miWest (270°)16.1 mph23.0 mphOvercast
1:52 PM25.0 °F-0.9 °F33 %29.79 in10.0 miWNW (290°)18.4 mph25.3 mphMostly Cloudy
2:04 PM21.9 °F3.0 °F44 %29.76 in10.0 miWNW (300°)18.4 mph28.8 mphOvercast
2:52 PM21.9 °F-0.9 °F37 %29.81 in10.0 miWNW (300°)16.1 mph26.5 mphOvercast
3:52 PM21.0 °F-7.1 °F29 %29.81 in10.0 miWest (280°)15.0 mph27.6 mphPartly Cloudy
4:52 PM19.0 °F-11.9 °F25 %29.84 in10.0 miWest (280°)16.1 mph20.7 mphClear
5:52 PM15.1 °F-8.0 °F36 %29.86 in10.0 miNW (310°)12.7 mphClear
6:52 PM12.9 °F-9.9 °F35 %29.88 in10.0 miWNW (300°)8.1 mphClear
7:52 PM12.0 °F-9.9 °F37 %29.86 in10.0 miNW (320°)6.9 mphClear
8:52 PM10.0 °F-9.9 °F40 %29.86 in10.0 miWNW (290°)5.8 mphClear
9:52 PM9.0 °F-9.9 °F42 %29.87 in10.0 miWest (280°)5.8 mphClear
10:52 PM3.9 °F-9.0 °F55 %29.88 in10.0 miCalmClear
11:52 PM1.0 °F-8.0 °F66 %29.88 in10.0 miSSW (210°)6.9 mphClear
Hourly data recorded from KORE, located miles away from Greenfield, Massachusetts







STORIES FROM OUR PARTNERS